Regional Weather Roundup
Issued by NWS

Home | Current Version | Previous Version | Text Only | Print | Product List | Glossary On
Versions: 1 2 3 4 5 6 7 8 9 10 11 12 13 14 15 16 17 18 19 20 21 22 23 24 25 26 27 28 29 30 31 32 33 34 35 36 37 38 39 40 41 42 43 44 45 46 47 48 49 50
000
ASUS43 KOAX 040610
RWRNE

WEATHER ROUNDUP FOR NEBRASKA
NATIONAL WEATHER SERVICE OMAHA NE
100 AM CDT TUE AUG 04 2015

NOTES: SATELLITE DATA IS BEING USED TO AUGMENT CLOUD COVER ABOVE
       12000 FEET.
       "FAIR" INDICATES FEW OR NO CLOUDS BELOW 12,000 FEET WITH NO
       SIGNIFICANT WEATHER AND/OR OBSTRUCTIONS TO VISIBILITY.

  * THESE STATIONS DO NOT REPORT WEATHER SUCH AS RAIN...SNOW OR FOG.

NEZ001>004-019>022-054>056-040700-
NEBRASKA PANHANDLE

CITY           SKY/WX    TMP DP  RH WIND       PRES   REMARKS
SCOTTSBLUFF    CLOUDY    74  51  44 S6        29.99S
6HR MIN TEMP:  72; 6HR MAX TEMP:  89;

ALLIANCE       CLOUDY    71  65  81 S10       29.98F
6HR MIN TEMP:  71; 6HR MAX TEMP:  85;

CHADRON        MOCLDY    69  61  75 SW7       29.91F
6HR MIN TEMP:  69; 6HR MAX TEMP:  89;

KIMBALL        CLOUDY    66  48  52 SW6       30.05R
SIDNEY         MOCLDY    64  49  57 W6        30.04S
6HR MIN TEMP:  64; 6HR MAX TEMP:  86;

$$

NEZ057>060-069>072-079>082-040700-
SOUTHWEST NEBRASKA

CITY           SKY/WX    TMP DP  RH WIND       PRES   REMARKS
NORTH PLATTE   MOCLDY    70  66  87 SE14      29.98S
6HR MIN TEMP:  70; 6HR MAX TEMP:  81;

IMPERIAL       CLEAR     68  56  65 CALM      29.99S
6HR MIN TEMP:  66; 6HR MAX TEMP:  89;

LEXINGTON      MOCLDY    70  67  88 E7        29.97F
MCCOOK         MOCLDY    72  70  93 E7        29.95S
6HR MIN TEMP:  72; 6HR MAX TEMP:  85;

OGALLALA       PTCLDY    70  67  92 E3        29.99S
$$

NEZ005>010-023>029-035>040-094-040700-
NORTH CENTRAL NEBRASKA

CITY           SKY/WX    TMP DP  RH WIND       PRES   REMARKS
AINSWORTH      MOCLDY    68  62  82 SE6       29.99S
O`NEILL        MOCLDY    70  64  80 SE6       29.99S
ORD            MOCLDY    68  64  87 E7        29.97F
6HR MIN TEMP:  68; 6HR MAX TEMP:  80;

THEDFORD       MOCLDY    69  62  77 SE9       30.00S
$$

NEZ041-046>049-061>064-073>077-083>087-040700-
SOUTH CENTRAL NEBRASKA

CITY           SKY/WX    TMP DP  RH WIND       PRES   REMARKS
GRAND ISLAND   PTCLDY    68  64  87 E7        29.98S
6HR MIN TEMP:  68; 6HR MAX TEMP:  78;

AURORA         PTCLDY    67  66  99 E6        29.98S
HASTINGS       PTCLDY    71  67  87 E9        29.97S
6HR MIN TEMP:  70; 6HR MAX TEMP:  79;

HEBRON         PTCLDY    72  67  85 E8        29.95S
HOLDREGE       CLOUDY    69  65  89 E8        29.97S
KEARNEY *      MOCLDY    68  64  88 E7        29.97S
YORK           MOCLDY    66  66 100 E6        29.98S
$$

NEZ011>018-030>034-042>045-040700-
NORTHEAST NEBRASKA

CITY           SKY/WX    TMP DP  RH WIND       PRES   REMARKS
NORFOLK        MOCLDY    67  64  90 SE5       29.98S
6HR MIN TEMP:  65; 6HR MAX TEMP:  78;

ALBION         MOCLDY    68  63  83 SE3       29.99S
BLAIR          MOCLDY    69  62  78 E5        29.98S
COLUMBUS *     PTCLDY    64  59  82 CALM      29.99S
FREMONT        CLOUDY    73  64  73 E5        29.99R
TEKAMAH        MOCLDY    71  67  87 NE3       29.97F
6HR MIN TEMP:  71; 6HR MAX TEMP:  81;

WAYNE          CLOUDY    69  65  90 CALM      29.99S
$$

NEZ050>053-065>068-078-088>093-040700-
SOUTHEAST NEBRASKA

CITY           SKY/WX    TMP DP  RH WIND       PRES   REMARKS
LINCOLN        MOCLDY    74  64  71 NE6       29.98R THUNDER
6HR MIN TEMP:  72; 6HR MAX TEMP:  81;

OMAHA EPPLEY   CLOUDY    73  63  70 E6        29.98R
6HR MIN TEMP:  73; 6HR MAX TEMP:  81;

BEATRICE       MOCLDY    72  68  87 E6        29.96S
FALLS CITY     PTCLDY    72  70  93 CALM      29.95R
6HR MIN TEMP:  71; 6HR MAX TEMP:  79;

NEBRASKA CITY  PTCLDY    70  62  75 E3        29.97S
PLATTSMOUTH    PTCLDY    68  65  89 NE5       29.97S
$$

NEZ044-045-051>053-067-040700-
OMAHA AREA

CITY           SKY/WX    TMP DP  RH WIND       PRES   REMARKS
OMAHA EPPLEY   CLOUDY    73  63  70 E6        29.98R
6HR MIN TEMP:  73; 6HR MAX TEMP:  81;

BLAIR          MOCLDY    69  62  78 E5        29.98S
FREMONT        CLOUDY    73  64  73 E5        29.99R
MILLARD        CLOUDY    73  64  73 CALM      29.97R
OFFUTT AFB     MOCLDY    70  65  85 NE6       29.96S
PLATTSMOUTH    PTCLDY    68  65  89 NE5       29.97S
WAHOO          MOCLDY    67  65  91 CALM      29.97S
$$


USA.gov is the U.S. government's official web portal to all federal, state and local government web resources and services.